Find Starlink 5773

NORAD ID: 57074 Int'l Des: 2023-088 Owner: SPXS Country: US Constellation: starlink operational
LEOCIRCULAR

Live Position

Loading 3D Globe...

About Starlink 5773

Description loading...

Upcoming Passes

Passes for default location (London). Set your location on the main map for personalized predictions.

Altitude History

Loading altitude history...

Two-Line Element Set

1 57074U 23088AC 26105.15528409 .00000584 00000-0 47277-4 0 9990
2 57074 43.0017 266.9015 0001134 268.2026 91.8689 15.11054918155887
Epoch: Apr 15, 2026 • Age: 17 hours

Current Status

Altitude 545.3 km
Velocity 7.59 km/s
Sub-Earth Point -42.41°S, 4.81°E
Launch Date Jun 22, 2023
Age 2.8 years
Type internet

Technical Details

Classification Payload
Mass 305.00 kg
Dry Mass 290.00 kg
Total Mass 305.00 kg
Length 0.20 m
Diameter 2.80 m
Span 9.00 m
Shape Box + pan
Manufacturer SPXS
Bus Type Starlink
Phase Status In Orbit
Owner/State SPXS/US

Most Searched